Dewpoint
63 63 63 63 62 62 63 63 63 63 63 63 63 62 60 59 57 55 55 55 56 58 63 60 62 62 64 64 65 65 64 63 61 61 62 60 59 57 55 55 57 58 57 58 58 59 59 60 61 62 62 62 62 62 61 60 60 60 61 60 60 60 57 56 57 58 59 58 58 58 57 57 57 57
62 62 63 64 63 62 63 62 63 63 63 62 62 62 62 61 58 57 55 55 57 58 60 62 62 65 64 64 63 64 65 61 62 62 62 63 60 56 55 54 56 56 55 55 55 57 58 60 61 62 63 62 62 62 61 60 60 61 61 60 60 60 57 57 58 59 59 58 57 57 57 57 57 59
61 61 61 63 61 62 62 63 64 63 63 62 62 62 61 62 60 59 58 56 58 60 59 62 63 63 63 64 64 64 65 63 62 63 63 63 59 56 56 54 55 55 55 55 55 58 58 58 59 61 62 62 62 62 62 62 61 62 61 59 58 58 57 57 58 58 58 59 59 58 57 57 58 58
59 57 57 56 57 58 59 61 62 62 62 62 62 62 61 62 61 61 59 57 56 60 60 60 61 63 64 64 64 64 64 64 59 63 63 63 58 58 59 54 54 54 54 55 57 59 59 59 60 61 62 62 62 62 62 62 62 61 58 57 57 56 55 56 57 58 58 58 58 58 57 58 58 58
56 55 54 53 54 55 56 58 59 60 61 62 62 62 62 61 61 61 59 58 57 59 61 61 61 63 64 63 63 62 63 63 62 61 63 63 62 60 60 59 54 54 53 53 54 55 56 57 60 61 61 62 62 60 60 60 57 58 58 56 55 54 54 55 54 55 57 58 57 57 57 58 57 56
54 53 52 51 52 53 54 54 54 55 56 58 61 61 61 61 61 61 60 59 58 58 60 60 61 62 63 61 64 63 61 62 62 62 63 63 63 60 60 60 58 53 54 53 53 54 54 54 57 57 56 57 57 56 56 56 55 57 56 53 53 55 55 55 54 54 57 57 57 57 57 57 56 56
52 51 51 50 50 52 51 51 52 52 53 55 59 59 60 60 61 61 61 59 58 58 58 60 60 60 61 61 62 63 64 63 62 62 62 63 62 61 61 60 59 53 53 52 53 53 53 54 54 55 55 55 54 54 54 54 53 53 53 51 52 53 53 53 52 52 57 58 57 57 57 56 56 57
52 51 50 49 49 49 49 49 49 50 51 53 55 55 55 56 58 60 61 60 59 59 58 59 60 60 60 61 62 63 63 63 61 62 62 63 62 62 61 60 60 55 52 52 52 53 53 53 53 53 54 54 54 53 54 53 53 52 52 51 51 51 50 50 50 51 55 57 57 57 56 55 56 57
52 51 50 49 49 49 48 48 48 49 49 50 51 50 51 52 54 57 60 61 60 59 58 58 60 61 61 62 62 62 62 62 62 62 61 62 62 62 61 60 60 55 52 52 52 52 53 53 53 53 53 53 53 53 53 53 52 52 51 50 50 50 49 49 49 51 52 52 53 57 56 54 56 56
53 51 50 49 49 48 48 47 47 47 47 48 47 48 48 49 51 55 58 60 60 60 59 58 58 59 60 60 60 62 62 61 60 60 61 62 62 61 61 61 60 58 56 55 55 52 53 53 53 52 53 53 52 52 52 52 51 51 51 50 50 49 48 49 50 50 51 51 51 53 53 53 55 56
53 52 51 50 49 48 48 47 47 46 46 47 46 47 47 48 50 52 54 56 57 58 58 57 58 58 59 59 58 61 62 61 61 59 59 59 61 61 61 60 61 59 57 55 53 55 55 55 55 53 53 53 52 53 52 51 51 51 50 49 49 48 48 49 50 50 50 50 49 49 49 52 55 56
53 52 52 51 49 48 47 47 47 47 46 46 46 46 46 47 48 50 52 52 53 56 53 53 53 56 56 56 58 60 60 58 58 60 59 57 58 59 61 61 60 58 57 56 56 54 54 54 53 52 52 52 52 52 52 52 52 51 49 49 48 48 48 49 49 49 49 49 48 47 47 47 48 53
52 52 52 52 50 50 49 47 47 47 47 46 45 46 46 47 47 48 49 49 49 51 50 49 50 51 52 53 53 53 55 56 57 58 58 57 58 59 59 60 60 57 56 56 56 56 56 57 56 56 55 55 53 53 52 53 52 51 49 48 48 48 48 48 48 48 48 47 47 46 46 45 46 47
51 51 51 52 52 50 49 47 44 43 44 46 46 46 46 46 46 47 48 47 47 48 47 47 47 47 48 50 51 51 52 55 57 57 57 56 57 57 56 56 57 58 57 56 55 52 52 56 57 57 56 57 55 56 54 54 53 50 48 48 48 48 48 47 47 47 46 46 46 46 46 46 46 45
50 50 50 50 51 52 51 47 44 43 43 43 43 44 45 47 46 46 47 47 47 47 46 46 46 46 46 48 49 50 50 53 55 57 57 56 55 54 53 51 52 53 50 47 45 46 47 53 55 49 47 52 56 56 55 51 50 48 48 47 47 47 47 46 46 46 45 46 46 46 46 46 46 45
49 49 50 50 51 50 48 47 47 47 43 42 42 42 43 43 42 43 46 47 47 46 46 45 45 45 45 46 47 47 48 50 54 57 57 55 55 54 53 52 49 49 50 47 44 43 46 46 45 44 45 47 53 56 52 49 48 47 47 47 46 46 46 45 45 45 45 45 45 45 45 45 45 44
48 48 49 49 50 48 48 46 44 44 49 45 44 44 45 44 43 41 42 43 48 47 47 46 45 45 45 45 46 48 48 49 54 56 52 50 49 48 47 47 47 49 50 46 43 42 44 45 43 43 44 46 47 48 47 47 46 46 46 46 45 45 45 45 45 45 44 44 44 44 44 44 43 43
45 46 48 47 47 46 45 43 41 43 48 49 48 48 48 47 46 44 43 44 44 46 48 47 46 46 46 45 46 48 50 53 54 53 50 49 47 46 45 47 46 48 50 45 43 41 42 44 43 42 43 45 45 46 45 45 45 45 45 44 44 44 44 44 44 44 43 43 43 42 42 41 41 41
43 43 45 46 45 43 43 41 39 43 46 50 48 47 48 47 46 46 46 46 47 47 47 47 47 46 46 46 46 47 51 55 53 52 50 49 48 48 47 46 46 46 47 47 44 40 42 43 42 42 43 43 43 44 44 44 44 44 44 44 44 44 43 43 43 42 42 42 42 41 40 40 40 39
39 41 41 42 42 41 40 39 37 40 48 46 46 46 46 48 48 46 45 43 44 46 46 46 45 45 44 43 44 45 48 52 54 53 52 51 49 46 44 43 44 43 46 46 43 41 41 43 41 41 43 43 42 43 43 43 44 43 43 43 42 42 42 42 42 41 41 41 41 41 40 39 39 39
39 40 40 38 38 39 38 37 35 36 42 46 46 45 45 45 46 49 49 43 41 41 40 40 41 41 42 42 42 42 43 46 51 52 49 48 47 45 43 43 42 43 44 45 44 42 40 42 41 40 41 41 41 42 42 43 42 42 42 42 42 42 41 41 41 41 41 41 41 40 40 40 40 40
39 39 42 42 37 37 37 35 35 36 43 44 44 45 44 44 43 44 48 49 48 42 41 41 40 41 41 42 43 42 43 44 47 50 48 48 47 44 44 42 43 44 45 46 48 42 41 43 42 40 40 40 41 41 42 42 43 42 42 42 42 41 41 41 41 41 41 41 41 41 40 40 41 41
38 37 39 41 38 37 37 34 35 36 40 44 43 44 44 43 43 45 42 46 44 44 43 43 43 43 44 45 45 45 43 43 46 48 49 50 48 46 45 45 45 44 45 47 50 43 43 43 43 41 38 36 39 41 41 42 42 42 42 42 42 41 41 41 41 41 41 41 41 41 40 40 40 41
37 36 36 38 36 35 35 34 34 35 36 41 43 42 42 42 40 46 43 43 45 43 43 42 43 43 43 43 44 44 44 45 46 45 47 48 49 48 47 46 45 44 45 47 49 44 43 42 40 42 40 36 34 39 41 41 42 42 42 42 42 41 41 41 41 41 41 41 41 41 40 40 40 40
35 35 36 37 37 35 35 34 34 35 35 37 42 41 40 41 42 42 41 42 42 42 42 41 41 41 41 42 42 43 43 43 43 43 44 46 47 47 47 46 46 46 46 47 46 45 42 41 39 39 38 38 37 37 39 40 41 42 42 42 42 43 43 43 42 42 40 40 40 40 39 39 39 39
36 36 38 37 36 35 34 34 34 35 35 36 39 37 35 36 36 41 42 41 40 39 39 38 38 39 40 40 42 42 43 43 43 42 42 42 43 44 46 46 45 44 45 48 43 45 42 41 40 39 38 37 36 37 37 38 40 41 42 43 43 43 43 43 42 42 41 41 40 39 39 38 38 38
37 39 38 38 38 34 34 35 34 34 35 36 35 35 35 36 36 38 40 40 40 38 37 38 37 37 38 40 41 41 42 42 42 41 41 42 42 42 43 43 44 44 45 46 48 47 44 42 42 39 38 37 36 36 37 36 38 41 41 42 42 42 43 42 41 41 41 40 40 39 38 38 37 37
40 39 39 37 35 34 34 35 35 35 36 34 34 35 36 36 37 39 38 38 39 37 36 36 36 36 37 39 41 41 42 42 42 42 41 41 41 41 41 42 42 41 42 42 44 44 43 41 40 40 39 38 36 35 35 38 39 39 39 41 42 42 42 42 41 41 40 40 39 38 37 37 37 36
41 36 34 34 34 34 35 36 35 36 36 35 34 35 36 40 37 39 37 37 37 35 35 35 37 35 36 38 41 43 42 42 42 41 41 41 41 41 41 41 41 41 41 40 39 40 40 39 38 38 38 37 37 37 37 36 38 38 39 39 39 41 42 42 41 40 38 36 35 35 35 35 35 36
33 33 33 34 34 35 37 40 37 35 35 34 34 35 37 37 36 36 37 37 36 34 34 35 35 36 37 37 38 39 39 39 39 40 40 39 39 40 39 39 40 40 41 39 38 38 37 37 37 37 37 37 37 37 37 37 37 38 38 38 40 41 42 41 39 37 35 34 34 33 34 34 34 34
41 43 37 34 34 35 35 35 34 33 34 34 35 34 34 36 35 35 35 36 36 36 36 35 34 34 36 37 37 37 37 37 37 37 38 39 39 39 39 38 38 39 40 40 40 39 38 38 38 38 37 37 37 37 38 38 37 38 38 39 39 38 40 39 38 37 36 35 35 34 34 34 33 34
40 40 35 37 37 37 36 36 35 36 34 33 32 33 34 33 34 35 36 36 34 36 36 35 37 36 36 35 35 35 36 36 36 37 37 37 37 38 38 38 37 38 38 39 40 40 39 39 39 39 38 38 37 37 38 37 37 37 38 39 39 39 39 37 37 38 37 36 35 34 34 33 33 34
41 38 38 36 37 35 31 32 33 34 35 32 33 34 33 33 34 34 32 33 32 34 35 35 34 35 35 35 37 35 35 36 36 37 37 37 37 37 37 37 37 37 37 37 38 39 39 40 40 39 39 38 38 37 37 36 37 38 37 38 39 39 38 38 37 37 38 35 34 34 35 35 35 34
38 37 35 34 32 33 34 34 32 32 33 33 32 32 31 31 32 33 32 32 33 33 33 33 33 34 34 35 35 35 35 36 36 36 36 37 37 36 36 36 37 37 37 37 38 38 39 39 39 40 40 40 41 39 37 36 36 37 37 38 38 38 39 38 38 38 37 36 34 34 33 34 34 34
30 30 31 32 33 33 33 32 32 33 32 31 31 33 32 32 31 31 32 33 31 31 31 32 32 32 34 33 34 35 35 35 35 35 36 37 37 35 35 35 36 36 37 37 37 38 38 38 38 37 37 37 37 38 40 39 36 37 37 37 37 37 37 37 37 37 37 36 36 34 33 33 34 35
30 32 32 31 31 33 32 31 31 32 32 31 31 31 31 31 31 31 31 32 32 31 31 30 30 31 31 32 31 32 32 33 35 35 34 34 35 36 36 36 34 35 36 36 37 37 37 36 35 34 33 33 32 32 34 39 40 36 35 34 36 36 37 37 37 37 37 37 38 36 33 33 34 35
29 32 34 33 34 34 32 32 32 32 33 32 32 31 30 30 30 32 33 30 30 30 30 31 30 30 30 30 30 31 31 32 32 33 33 35 35 36 35 33 34 35 35 35 36 36 36 35 34 34 33 32 31 30 32 36 37 39 36 35 35 36 36 36 36 36 37 38 38 37 34 32 32 34
30 34 34 33 33 33 33 34 33 34 31 30 31 31 32 32 32 32 32 31 30 29 30 29 29 30 30 29 29 29 30 30 30 31 32 33 33 33 34 33 34 36 36 36 38 36 37 36 35 33 32 31 31 30 30 32 33 36 38 38 33 34 36 35 33 33 35 37 37 37 36 31 34 34
34 35 34 34 35 35 34 33 32 32 34 32 31 31 30 30 31 30 30 30 30 29 29 29 29 28 29 30 29 29 28 28 29 29 29 30 32 32 31 32 33 33 33 33 36 35 36 35 34 36 33 32 32 32 33 32 31 33 32 34 35 31 32 34 34 34 35 34 36 38 38 37 35 35
33 33 35 34 35 35 35 36 35 33 32 31 31 31 30 29 29 30 30 29 29 27 28 27 28 29 29 29 29 29 28 31 29 28 28 27 27 29 31 30 31 30 31 31 32 34 34 33 35 34 38 33 33 33 33 31 31 30 29 31 33 34 30 30 28 28 34 37 37 34 33 33 30 31
32 33 33 34 34 35 35 35 35 35 35 33 31 31 31 31 30 29 29 29 30 28 27 28 27 27 27 28 28 28 27 27 28 28 27 27 27 27 27 28 28 29 29 30 31 32 32 33 34 33 37 29 32 32 32 31 29 29 29 28 32 33 34 35 32 29 26 33 36 32 33 33 30 29
32 31 32 33 33 32 33 34 34 33 32 32 33 33 32 30 30 30 30 29 30 28 28 27 27 27 26 26 26 26 26 25 26 27 27 28 28 27 28 28 26 26 27 27 28 30 32 34 33 34 34 28 26 27 27 29 29 29 28 27 27 32 33 33 32 33 31 27 27 28 30 31 31 29
31 32 31 30 31 32 30 30 28 28 29 30 28 30 28 29 29 29 28 29 29 28 28 27 27 26 25 26 27 26 25 24 24 24 26 26 27 25 25 24 24 26 25 23 27 32 31 34 35 34 29 26 27 24 26 26 26 26 25 27 28 28 28 33 33 30 30 31 31 29 26 27 27 25
32 32 31 32 31 32 30 28 26 25 26 28 24 24 25 26 28 28 28 27 27 26 27 28 28 27 27 26 26 26 26 25 25 24 24 24 24 23 24 26 24 25 26 24 23 23 25 26 27 29 26 27 25 27 23 23 22 23 25 26 25 27 28 27 28 29 31 30 30 31 30 30 29 30
31 30 32 28 28 28 28 29 29 30 27 24 23 23 22 23 23 26 26 26 26 26 27 27 28 28 28 27 25 25 27 28 27 27 27 25 25 24 24 23 25 26 25 24 25 24 23 21 24 26 25 22 22 24 24 27 25 26 24 24 24 24 24 26 24 24 24 24 29 31 29 30 29 30